GCLP Airport Information

Runway Information
Runway 03L Length 10171 ft width 148 ft
Elevation 78 ft Threshold 0 ft Heading 22
Runway 21R Length 10171 ft Width 148 ft
Elevation 33 ft Threshold 0 ft Heading 202
Runway 03R Length 10171 ft width 148 ft
Elevation 69 ft Threshold 0 ft Heading 22
Runway 21L Length 10171 ft Width 148 ft
Elevation 27 ft Threshold 0 ft Heading 202
Airport Frequencies
Type APP Name APP Frequency 120.9 MHZ
Type ATIS Name ATIS Frequency 118.6 MHZ
Type GND Name GND Frequency 121.7 MHZ
Type TWR Name TWR Frequency 118.3 MHZ
Airport Navaids
Type VOR-DME Name Gran Canaria Frequency 112900 KHZ
Type VOR-DME Name Gran Canaria Frequency 115000 KHZ
Type TACAN Name Gran Canaria Frequency 115600 KHZ
Type NDB Name Gran Canaria Frequency 365 KHZ
Airport Weather Information & NOTAM
ADDS - METARS form results

(1927 UTC 19 July 2018)
 
METAR text: GCLP 191900Z 01023KT 9999 SCT020 23/17 Q1017 NOSIG
Conditions at: GCLP (LAS PALMAS/GANDO, ES) observed 1900 UTC 19 July 2018
Temperature: 23.0°C (73°F)
Dewpoint: 17.0°C (63°F) [RH = 69%]
Pressure (altimeter): 30.03 inches Hg (1017.0 mb)
Winds: from the N (10 degrees) at 26 MPH (23 knots; 12.0 m/s)
Visibility: 6 or more miles (10+ km)
Ceiling: at least 12,000 feet AGL
Clouds: scattered clouds at 2000 feet AGL
Weather: no significant weather observed at this time

METAR text: GCLP 191830Z 01021KT 9999 FEW020 24/17 Q1017 NOSIG
Conditions at: GCLP (LAS PALMAS/GANDO, ES) observed 1830 UTC 19 July 2018
Temperature: 24.0°C (75°F)
Dewpoint: 17.0°C (63°F) [RH = 65%]
Pressure (altimeter): 30.03 inches Hg (1017.0 mb)
Winds: from the N (10 degrees) at 24 MPH (21 knots; 10.9 m/s)
Visibility: 6 or more miles (10+ km)
Ceiling: at least 12,000 feet AGL
Clouds: few clouds at 2000 feet AGL
Weather: no significant weather observed at this time